HST
1 20580U 90037B   24135.90876623  .00010197  00000-0  48831-3 0  9995
2 20580  28.4674 208.0227 0002647  44.9204 315.1603 15.17286694672239
ISS (ZARYA)
1 25544U 98067A   24136.36125853  .00023642  00000-0  40125-3 0  9991
2 25544  51.6378 118.1084 0003280 171.3474 334.3257 15.51357294453455
CXO
1 25867U 99040B   24138.77365644  .00000644  00000-0  00000+0 0  9993
2 25867  40.5075 156.6402 8922033 294.4302 359.8066  0.37814091 25609